Theta_e
305 306 306 306 305 305 305 304 304 303 304 305 303 306 307 312 302 299 310 315 312 314 315 319 323 326 326 325 327 329 330 329 330 330 329 330 331 334 334 338 342 343 342 345 346 347 348 349 349 350 351 352 354 355 355 356 355 356 359 359 359 357 355 351 350 350 347 346 346 346 346 343 341 341 341 340 338 339 339 338 338 337 338 339 338 339 340
303 304 305 306 304 304 304 304 305 305 304 304 305 306 308 309 310 310 314 316 313 313 315 319 322 327 327 330 331 328 326 325 330 329 330 330 331 332 333 337 339 342 343 345 346 347 348 348 349 349 350 352 352 352 352 354 355 357 360 359 358 356 353 351 351 349 346 346 345 345 345 342 341 342 341 338 336 336 336 337 337 337 338 339 337 338 339
302 304 305 304 303 303 302 304 304 305 305 305 305 305 307 310 309 312 311 315 314 318 324 324 329 331 324 323 322 323 328 330 328 328 329 331 331 332 335 339 339 342 343 345 346 346 347 347 348 348 350 351 352 350 353 354 356 359 359 358 357 355 352 352 351 348 346 344 343 343 346 344 340 339 337 336 335 335 335 336 338 339 340 337 335 336 336
301 303 303 303 303 303 302 303 304 303 302 302 303 304 309 306 307 309 308 309 309 316 320 319 322 323 325 324 327 329 330 328 330 330 330 331 333 333 335 337 338 340 341 343 344 344 345 347 348 349 350 350 350 350 353 354 355 357 356 356 354 355 354 353 350 347 345 344 343 342 343 338 335 333 335 336 336 336 336 337 339 340 337 336 336 335 334
302 305 304 303 302 301 298 300 303 305 304 305 306 306 310 308 309 308 306 306 315 317 322 319 320 320 323 325 326 329 331 332 330 331 332 333 333 335 337 337 338 338 339 341 344 343 345 345 346 348 350 348 350 352 352 355 357 356 354 354 354 354 353 351 349 346 344 344 342 341 340 337 335 334 334 335 334 335 337 339 340 339 338 337 336 337 336
302 304 301 301 299 293 295 307 308 307 305 305 304 304 306 309 312 310 314 315 321 321 320 317 320 321 324 327 332 332 333 333 332 332 334 333 334 334 335 336 337 340 341 341 343 344 346 346 346 346 348 349 351 354 355 357 356 355 355 354 354 353 352 350 348 345 344 343 341 339 338 338 337 338 336 333 331 333 337 339 339 338 338 338 336 336 337
301 303 301 298 293 296 311 316 314 309 308 308 306 307 309 310 313 315 312 315 318 321 320 322 324 327 330 326 326 324 325 329 331 331 332 334 333 335 337 337 337 340 341 343 344 344 344 345 346 346 347 349 352 353 355 354 355 354 354 353 353 352 349 348 347 344 342 341 340 339 339 338 338 338 336 331 331 334 336 337 339 338 338 336 335 336 337
304 302 300 292 295 307 311 312 315 313 310 310 308 309 312 316 314 315 314 317 320 324 321 321 323 322 324 325 327 327 326 329 330 328 329 331 333 335 336 339 341 342 340 342 340 343 346 348 347 346 347 348 350 352 354 353 353 353 353 352 352 351 348 346 345 344 342 341 340 338 337 335 333 334 334 333 332 334 336 338 340 339 338 337 337 337 338
299 302 300 299 308 306 309 309 312 312 310 307 305 302 308 317 319 318 316 319 320 320 321 322 321 322 321 323 325 325 324 326 327 330 333 333 334 337 339 339 341 347 346 347 348 351 347 346 346 346 349 349 350 351 351 351 352 351 351 350 350 349 347 346 344 343 342 340 339 336 334 333 332 331 332 334 335 338 337 339 340 339 339 338 340 339 340
305 301 298 300 299 296 305 313 315 317 316 317 317 315 312 318 319 320 320 320 321 321 320 320 321 325 318 316 320 327 326 325 327 330 332 333 336 339 340 346 345 347 349 350 350 349 348 347 348 349 350 351 351 350 350 350 349 349 349 348 349 348 347 346 344 343 341 340 338 335 334 332 331 331 333 336 336 339 339 338 337 338 339 339 340 340 339
303 302 297 297 296 301 313 313 314 317 318 317 317 311 306 317 319 320 320 319 320 321 320 322 323 318 313 315 323 329 328 325 328 330 331 333 335 338 339 341 343 345 348 351 351 352 351 349 349 350 351 351 350 349 349 347 347 347 347 348 348 346 346 346 344 341 339 339 339 335 333 332 333 333 334 335 338 340 338 339 338 339 338 337 337 339 339
303 301 299 297 302 303 312 314 315 317 319 316 313 301 303 318 320 320 319 317 319 320 324 321 321 318 315 318 323 330 334 328 332 338 339 339 339 341 345 348 350 352 351 351 353 353 353 352 350 351 350 350 350 348 346 347 346 346 347 348 348 348 347 345 344 341 339 339 339 335 333 333 333 333 334 336 338 338 338 338 338 337 337 336 338 340 341
302 301 301 303 306 315 314 314 316 317 318 314 305 298 311 320 322 321 319 319 320 323 322 321 322 325 330 329 331 336 341 342 343 346 346 346 346 345 344 345 347 350 352 352 351 351 350 348 348 349 350 350 348 348 348 346 346 347 348 349 348 346 346 344 343 341 339 338 337 335 334 334 335 334 335 336 336 337 337 338 338 339 340 340 340 341 341
299 304 299 300 305 311 314 317 316 318 310 302 303 316 318 322 322 324 322 320 322 326 331 330 329 330 332 335 339 342 344 345 346 345 345 345 345 346 346 347 347 347 346 346 345 343 346 346 346 347 350 350 347 347 346 346 348 349 348 348 347 346 344 343 342 340 339 338 337 335 336 337 337 336 338 339 339 339 339 340 339 340 341 341 341 340 339
304 303 301 297 293 312 317 314 317 319 310 314 317 321 323 324 325 325 327 327 329 330 329 331 333 334 335 336 337 338 339 341 343 345 346 347 346 347 348 346 346 347 346 344 342 342 342 344 345 346 349 348 346 346 346 347 348 347 347 346 346 344 343 342 341 340 338 337 335 334 334 337 338 337 339 339 339 340 341 340 339 339 340 340 338 333 332
300 302 299 297 308 314 318 314 308 315 317 321 324 325 322 326 327 326 326 327 329 330 330 329 330 331 331 334 336 336 337 337 339 341 344 345 345 343 344 346 346 347 346 345 342 341 341 342 343 345 348 347 345 345 346 346 346 346 346 345 345 343 341 341 340 339 338 337 336 336 337 339 338 337 339 339 340 341 341 339 339 339 340 335 331 329 328
309 306 312 317 319 318 318 317 315 316 319 321 323 325 324 322 322 327 324 324 325 328 329 329 329 328 330 330 332 332 333 335 337 339 341 342 344 346 347 347 348 349 348 347 344 341 340 341 342 343 345 347 345 345 345 344 344 344 344 344 342 342 341 340 340 340 339 338 337 338 340 340 338 337 338 339 339 341 340 339 339 337 333 331 330 332 330
315 316 317 321 320 320 318 318 318 316 316 318 318 319 319 319 321 324 325 326 326 327 329 325 327 327 328 327 327 329 332 335 337 339 339 341 343 345 346 347 346 347 346 346 345 342 339 339 340 341 342 344 344 345 343 343 344 344 344 342 341 340 341 340 339 340 338 337 339 339 340 340 340 339 339 339 337 339 339 338 338 336 333 333 332 331 330
307 300 313 315 315 317 318 315 316 318 317 317 319 319 318 318 320 320 322 323 324 326 328 328 327 328 329 329 331 334 335 335 337 337 338 338 339 341 342 343 346 347 348 344 342 343 341 337 337 337 339 340 343 342 341 342 343 344 343 341 340 340 339 340 341 340 339 337 337 337 338 338 339 339 338 338 338 338 338 337 336 336 336 331 329 328 328
309 311 313 316 317 318 318 317 313 314 315 314 316 317 318 319 319 319 320 322 322 325 325 328 328 329 332 333 333 332 334 336 338 338 338 339 338 337 337 339 341 343 345 344 342 341 341 339 338 338 338 339 340 340 339 339 340 342 341 340 339 339 339 339 338 339 338 337 337 337 337 337 336 336 337 338 338 337 337 337 336 336 334 330 328 328 328
311 314 316 315 316 315 315 315 315 315 315 315 315 316 317 317 316 316 317 318 318 320 323 327 329 328 330 332 333 332 334 335 335 336 337 339 339 340 342 342 342 343 343 342 341 341 340 339 339 338 339 339 340 340 340 340 340 340 341 339 339 340 339 339 338 338 338 338 337 337 337 332 321 316 321 335 337 337 329 336 340 335 330 329 330 331 332
306 307 308 312 308 308 312 314 314 315 317 318 317 316 316 316 316 316 314 315 317 317 319 320 321 321 323 325 328 326 330 332 336 338 339 339 338 337 338 339 341 341 340 341 340 340 340 339 339 339 339 339 339 338 340 339 339 339 339 338 336 336 337 336 336 336 337 337 337 335 331 326 318 311 303 295 301 321 325 310 305 303 311 331 333 334 332
306 312 314 312 314 313 316 314 315 316 317 318 315 313 314 315 317 317 315 314 314 315 317 320 320 320 321 322 322 321 321 323 327 331 334 336 337 337 338 339 340 340 339 339 339 339 340 339 340 339 339 338 339 338 338 339 337 337 338 336 335 335 335 335 334 336 335 336 336 330 325 323 323 320 316 308 294 293 299 301 299 296 299 303 309 317 327
309 311 312 313 311 309 313 315 316 316 316 316 314 316 315 314 315 316 316 317 314 315 317 318 320 320 320 321 321 321 322 322 324 325 328 331 334 336 338 338 339 340 340 339 339 338 339 339 340 340 338 338 338 337 339 339 338 338 338 336 335 335 334 334 335 335 334 333 331 328 327 328 326 325 321 316 312 297 292 295 296 294 295 296 299 302 307
309 313 313 313 312 312 313 315 317 318 320 316 314 314 315 315 315 316 316 316 318 318 317 317 318 320 320 320 321 321 322 321 323 323 326 328 329 332 333 334 337 339 339 339 338 338 338 339 339 339 339 339 339 338 339 339 339 338 337 336 335 335 334 335 335 335 332 331 330 331 330 327 324 322 322 321 317 312 305 295 293 293 293 294 295 296 296
316 316 317 316 315 316 316 314 314 315 315 315 316 318 319 319 318 319 317 317 317 319 319 317 316 319 321 321 321 321 321 320 322 324 323 324 325 328 331 332 334 337 339 340 339 338 337 337 337 337 338 339 340 339 338 338 337 337 337 337 337 336 334 333 333 332 332 333 332 332 328 327 326 325 325 323 319 316 315 313 310 302 295 293 292 293 292
317 320 317 314 312 312 313 312 311 314 315 316 315 315 316 317 318 316 317 317 316 316 316 317 318 319 319 320 321 320 320 321 321 322 323 322 322 325 330 334 336 338 338 339 340 338 336 336 335 336 337 338 340 340 339 339 339 338 338 338 338 337 334 333 333 334 334 334 331 329 326 325 325 325 326 325 323 321 320 319 318 316 313 309 300 295 303
316 315 315 310 309 309 310 311 313 314 314 315 313 314 315 316 316 315 314 316 316 316 316 317 317 318 317 318 319 319 318 319 319 320 320 320 322 324 330 333 335 337 337 338 338 338 337 338 336 335 335 337 339 340 340 340 340 338 338 337 336 336 336 335 334 334 333 332 331 329 328 327 327 327 327 325 324 325 323 324 321 317 315 314 311 299 294
312 312 312 313 311 311 313 314 314 313 313 314 315 316 315 315 313 313 313 314 315 316 316 317 319 319 318 318 319 318 318 318 319 319 320 323 325 324 327 330 333 334 336 336 336 337 337 336 335 334 335 336 336 338 340 340 339 338 337 336 336 336 337 336 335 335 334 332 331 330 326 327 327 327 327 326 326 326 324 323 320 318 315 313 311 309 307
310 311 312 311 312 312 311 309 309 310 310 311 310 311 314 315 313 312 312 313 313 313 315 318 319 318 319 318 318 317 317 317 318 320 321 321 324 327 328 330 330 333 335 335 335 336 336 336 336 335 336 334 335 338 338 339 339 340 339 338 337 337 338 337 336 334 332 329 327 323 326 329 329 329 326 326 326 324 323 322 319 316 314 314 312 312 311
310 310 310 310 309 309 308 307 308 309 310 310 311 311 312 313 312 312 312 313 314 313 315 316 317 319 319 319 319 320 319 319 321 321 321 324 324 326 328 329 324 321 326 331 334 335 335 335 336 335 335 334 334 335 337 338 338 338 338 337 335 324 324 326 328 331 329 327 325 326 326 325 326 327 326 324 323 322 321 320 318 316 316 315 315 315 315
308 307 306 307 308 308 308 309 310 309 310 311 311 310 311 312 311 311 312 312 313 314 316 316 317 317 319 320 321 321 321 321 322 322 321 323 325 327 328 328 330 330 331 333 333 333 333 333 334 334 334 334 334 335 337 338 338 338 335 331 331 330 326 325 329 328 328 328 328 327 327 327 326 327 327 324 323 321 319 318 317 316 316 316 316 317 318
307 305 305 306 307 308 308 309 310 309 310 310 310 311 312 313 314 314 313 314 314 316 317 317 318 319 320 321 321 320 320 321 321 322 321 323 324 326 327 326 327 327 328 329 330 331 331 331 332 332 333 333 333 334 333 335 336 337 334 332 332 331 329 326 327 330 330 328 329 329 328 328 327 326 324 322 321 320 320 319 318 318 318 319 319 319 319
309 309 308 308 309 309 308 308 309 310 310 311 312 312 313 313 315 315 315 315 315 316 317 318 319 320 320 320 321 320 320 320 319 320 321 323 324 325 325 324 325 325 327 328 329 329 330 330 331 332 333 332 333 333 334 333 335 335 334 333 331 331 330 328 329 332 330 329 328 327 327 327 326 325 323 322 321 321 321 321 319 319 319 319 320 319 310
311 310 310 310 311 310 311 311 311 312 312 312 312 314 315 316 315 316 318 317 316 316 318 319 319 319 319 319 319 318 319 318 318 319 320 321 322 322 322 323 324 325 326 326 326 327 328 330 331 332 333 332 332 331 332 333 331 332 333 333 332 331 331 332 332 331 330 329 329 328 327 325 324 323 324 323 321 320 320 321 322 320 320 319 319 318 313
312 311 312 312 313 313 314 313 313 313 313 314 314 315 315 316 317 316 316 316 317 318 318 318 318 318 318 317 316 316 317 317 317 318 319 319 319 320 321 322 322 322 323 325 325 327 328 331 330 329 332 331 331 331 330 329 330 330 331 331 330 330 331 332 331 330 329 329 326 326 326 325 324 323 324 323 321 321 320 320 321 322 321 320 318 317 315
314 313 313 313 313 314 314 315 315 315 315 315 316 315 316 316 316 317 317 317 317 318 318 317 317 316 316 317 317 317 317 317 318 318 319 319 320 321 321 321 321 321 322 322 324 327 329 330 331 330 332 332 333 332 330 329 329 331 332 331 331 330 328 328 328 329 328 327 325 324 324 324 324 324 323 323 322 321 321 320 320 321 321 319 318 317 315
314 314 314 314 315 314 315 315 316 316 316 315 315 316 316 317 317 317 317 317 317 318 318 317 316 317 317 318 317 316 317 318 318 319 320 320 320 320 319 318 318 320 320 320 324 328 330 331 330 330 331 330 330 331 330 329 329 332 331 330 328 329 329 328 325 325 325 324 324 324 324 323 323 323 323 323 323 323 322 321 320 320 320 319 320 319 318
314 315 316 316 316 316 316 317 317 317 316 315 315 316 317 318 317 317 316 316 317 318 317 317 318 318 317 316 316 317 317 318 319 319 319 319 320 319 317 318 320 321 322 325 326 327 327 328 330 329 329 329 330 330 329 328 327 329 328 329 329 328 326 327 325 325 324 323 324 325 325 325 324 323 323 323 322 321 321 321 320 320 320 320 319 319 319
314 315 315 315 315 316 316 316 316 317 317 317 316 316 316 317 316 315 316 316 317 318 317 318 318 317 316 316 316 317 318 319 319 319 319 320 320 319 320 320 322 324 325 325 327 327 327 325 326 327 328 328 328 329 328 327 326 328 328 326 326 326 325 325 325 324 323 323 323 322 322 322 322 322 321 320 320 320 320 320 319 320 320 320 320 319 318
314 315 316 316 316 316 316 315 315 317 317 318 317 318 318 317 316 315 314 315 317 318 317 318 319 318 317 317 317 318 320 320 320 319 320 320 318 318 317 317 323 325 325 326 326 326 326 325 326 326 326 327 329 327 329 326 327 327 326 326 325 325 324 323 323 322 323 323 323 323 322 321 320 320 320 320 320 320 320 320 320 319 319 319 319 318 318
314 315 315 315 316 316 317 317 317 316 317 318 319 319 319 319 318 315 316 316 317 318 318 318 318 319 318 318 318 319 320 320 321 322 321 319 318 318 317 318 323 325 325 325 324 323 324 324 326 324 326 326 327 326 324 324 325 325 325 324 324 324 324 323 323 323 324 324 323 323 321 320 320 319 319 319 319 319 319 319 319 319 319 319 319 318 318
316 315 315 315 316 317 316 317 317 317 316 317 318 319 320 320 320 320 318 317 317 317 317 318 317 318 318 318 318 318 320 321 321 321 321 321 321 321 320 320 323 324 322 324 324 323 323 324 324 325 324 325 325 324 322 325 325 325 325 324 324 324 324 323 322 323 323 323 322 321 321 320 320 320 320 319 318 318 318 318 318 319 318 319 318 318 317
316 316 316 317 316 317 318 317 317 317 315 315 318 319 320 320 320 320 319 318 317 318 317 317 317 317 318 318 318 318 319 319 319 319 321 320 322 322 323 323 323 323 323 324 323 322 322 323 324 323 321 321 320 319 321 321 322 323 323 323 323 323 322 322 322 322 322 322 321 321 320 319 319 319 319 318 317 317 317 318 318 319 319 319 319 318 318
316 317 317 317 318 318 317 317 317 316 318 318 318 319 319 319 320 320 320 319 319 319 318 319 318 318 318 318 318 318 319 321 321 321 319 317 317 319 323 324 325 324 323 323 324 323 322 323 322 323 321 318 317 317 319 319 319 319 321 321 321 321 320 320 320 320 320 319 317 315 314 313 311 311 311 310 311 310 310 310 311 311 311 312 314 316 318
316 317 317 317 317 317 317 318 318 319 318 318 317 317 319 320 320 320 320 320 320 320 319 318 319 319 319 319 321 322 322 323 323 324 323 322 319 321 324 324 325 324 324 324 322 322 323 319 318 322 319 317 317 316 316 318 318 318 319 319 319 319 319 318 317 315 314 312 311 311 311 310 310 310 310 310 310 310 309 308 308 310 310 310 310 312 314
315 317 318 318 319 317 317 317 319 319 316 314 314 315 318 319 320 321 320 320 319 319 319 319 319 319 319 319 320 320 319 319 320 321 322 322 324 323 324 324 324 324 324 322 320 322 321 321 321 321 320 317 315 315 315 315 315 315 315 315 315 315 314 313 313 311 311 311 311 311 311 311 310 310 309 309 309 309 309 308 308 308 308 308 309 310 311
315 316 317 317 318 319 319 319 319 314 313 314 315 318 318 319 320 320 320 320 320 321 322 323 322 322 322 321 321 322 322 320 316 317 321 321 322 324 324 325 324 323 323 322 319 319 317 317 319 321 320 317 314 314 314 313 313 312 313 313 313 313 312 311 310 310 309 309 310 311 309 309 309 308 308 308 308 308 308 307 307 307 307 307 308 309 310
316 316 317 318 319 319 320 319 317 316 315 316 317 318 319 319 321 320 319 320 321 323 321 321 321 322 322 322 321 323 324 324 322 318 322 323 322 322 323 323 322 323 322 320 320 320 319 313 314 316 319 316 314 314 313 312 313 312 311 311 311 310 310 309 310 310 310 309 309 308 308 308 309 309 308 308 308 308 307 307 307 307 307 306 306 308 309
317 318 317 317 317 318 318 316 314 316 318 318 318 318 319 320 316 314 317 317 319 320 320 319 319 322 321 320 321 322 325 323 324 325 324 324 324 324 323 323 323 322 321 320 320 320 319 316 315 315 318 319 316 315 313 313 312 312 311 312 310 310 310 311 307 307 310 310 308 308 308 308 309 308 307 307 307 308 308 307 306 307 306 306 306 307 307
318 316 315 316 317 319 318 318 318 318 319 318 318 317 318 317 315 316 316 316 317 314 313 315 316 318 317 317 317 318 320 322 322 322 323 324 325 323 322 322 323 323 323 321 320 320 320 320 320 318 317 318 317 315 313 312 311 311 312 310 311 310 310 308 308 309 309 309 309 309 308 308 308 308 308 307 307 307 307 306 306 306 306 306 306 307 306
314 316 317 317 318 319 320 320 321 320 318 317 317 316 317 317 315 313 314 314 314 312 313 314 313 316 316 316 316 316 318 318 319 321 321 321 322 323 323 322 323 322 323 322 322 322 321 320 319 318 317 317 317 316 316 313 311 311 312 312 313 311 311 311 310 310 311 310 309 308 308 308 308 308 307 307 307 306 306 306 306 307 306 306 306 306 306
Wind_Speed
18 18 18 13 11 16 15 18 17 17 17 16 19 15 12 11 12 13 8 10 11 10 11 11 12 12 12 13 15 13 5 1 3 6 10 12 12 11 14 14 13 13 14 13 14 15 14 13 14 14 12 12 11 11 12 12 13 14 13 13 14 14 13 13 13 12 12 11 10 14 14 13 12 12 11 10 11 10 10 10 8 6 8 5 6 7 8
15 15 16 10 14 11 12 15 18 18 19 19 20 18 16 15 12 13 10 14 16 13 12 11 12 12 10 8 3 2 6 11 9 10 11 13 13 15 16 16 15 14 14 14 14 14 13 14 14 14 12 12 13 14 13 13 13 12 11 13 13 14 17 16 12 11 13 11 12 13 14 13 13 9 8 8 11 11 10 9 9 9 7 6 9 9 8
13 15 14 12 13 15 17 15 13 16 17 18 20 20 18 15 14 8 4 9 10 9 6 7 3 2 1 2 7 11 9 8 11 12 13 13 14 15 13 12 13 13 13 13 13 13 14 14 15 14 13 12 11 13 12 12 12 11 11 11 12 14 18 17 12 12 14 13 12 12 9 7 10 8 8 10 11 11 10 10 10 8 6 7 6 5 5
7 6 9 13 14 17 19 20 19 12 11 12 8 9 5 9 9 10 9 6 7 7 9 8 7 5 4 8 11 9 8 11 12 12 12 13 13 12 11 10 10 12 13 13 14 15 15 14 14 12 11 10 10 12 11 10 11 10 11 12 14 14 14 14 13 14 15 13 14 13 12 13 14 15 15 14 13 12 11 11 10 7 7 7 7 8 7
4 4 4 8 10 8 11 16 17 16 13 11 10 11 10 15 14 11 10 10 7 12 7 7 8 10 11 9 8 9 9 8 11 12 13 12 12 11 11 11 12 13 15 15 14 14 12 12 12 12 10 10 10 10 10 11 10 11 12 13 12 12 12 15 13 14 16 15 13 12 13 16 17 14 13 12 12 10 9 8 7 9 9 9 9 8 7
5 3 2 5 5 9 10 9 17 18 18 17 15 12 11 12 11 7 8 8 9 7 4 9 10 11 11 11 7 3 3 5 9 11 9 10 10 11 12 13 13 11 9 8 9 10 9 9 9 10 12 12 11 10 9 9 11 11 11 11 11 11 13 14 15 15 17 14 13 13 14 14 15 10 10 9 9 7 7 8 9 10 11 10 8 7 9
4 1 2 4 8 9 3 2 1 11 19 20 21 19 15 13 12 6 4 7 8 11 10 11 9 6 3 5 4 4 3 3 5 5 3 4 9 11 11 10 10 9 9 8 8 8 9 11 12 11 10 8 7 8 9 10 10 10 10 10 10 11 13 13 15 16 18 14 14 15 15 14 11 13 12 10 11 11 11 12 9 9 9 9 8 10 10
1 3 2 3 2 5 8 5 2 3 0 4 8 5 4 7 12 12 12 12 10 5 5 6 1 1 3 4 4 3 3 3 6 8 8 9 8 9 9 11 11 12 12 12 12 11 10 9 9 9 10 9 9 9 10 10 10 10 9 10 11 12 15 16 17 17 17 14 15 14 14 15 16 14 12 13 13 13 12 11 9 8 7 8 9 10 10
5 2 3 8 6 7 3 3 2 2 4 10 14 12 12 13 9 10 12 10 6 5 6 5 5 6 6 3 2 4 2 2 2 3 6 8 7 4 5 9 10 10 11 11 9 8 8 8 8 8 8 9 9 9 9 9 9 9 10 11 12 12 14 16 17 17 14 15 14 15 15 16 17 16 13 13 13 11 13 12 11 11 10 9 8 8 9
1 5 7 5 6 7 5 3 4 4 6 9 9 5 4 3 7 8 9 10 8 7 6 7 9 9 7 6 3 3 2 1 4 4 6 9 10 9 8 5 7 7 7 7 8 8 9 8 7 7 8 9 9 9 9 9 10 10 11 11 11 12 13 16 17 16 14 17 15 14 13 15 15 14 13 11 12 11 12 12 11 10 9 8 7 8 10
3 3 4 4 6 5 5 6 7 8 10 9 6 3 10 6 9 9 11 10 10 11 11 11 11 10 8 6 2 2 2 2 5 8 8 8 9 8 7 8 9 8 7 8 9 9 10 9 7 8 9 10 9 8 8 9 10 10 10 10 11 13 14 15 16 13 14 14 14 14 12 13 12 12 13 13 12 9 10 10 9 7 8 7 7 8 9
3 2 4 7 2 4 7 10 12 14 12 5 3 9 7 8 7 8 9 10 10 9 9 11 10 10 9 5 4 2 1 4 7 10 12 11 11 10 10 10 9 9 9 9 9 8 8 8 8 9 9 9 9 8 8 8 9 9 10 10 10 10 12 14 15 13 13 14 14 13 12 12 11 12 11 11 11 11 10 9 9 8 7 7 8 7 7
5 3 6 4 5 1 9 14 19 17 9 4 8 11 2 4 4 5 7 7 7 6 10 11 7 1 5 9 9 7 7 10 10 10 11 12 12 13 13 11 9 7 5 7 9 9 7 7 7 8 8 8 8 7 8 7 9 8 8 8 9 10 11 13 14 13 13 14 15 13 12 12 12 12 12 12 11 11 11 9 8 7 7 6 6 5 4
10 6 6 7 7 2 7 16 19 11 2 8 10 2 5 4 3 3 6 7 5 3 2 5 8 9 11 11 10 9 7 10 11 12 14 15 15 13 12 10 9 8 8 9 10 10 7 7 7 6 6 7 7 7 7 7 7 5 7 8 8 9 11 12 13 13 13 12 11 9 9 9 10 12 12 11 11 11 9 9 9 8 5 4 3 3 3
2 2 4 3 4 2 13 19 12 4 6 4 2 2 6 6 5 7 9 9 8 11 12 10 14 15 14 15 14 14 12 11 10 9 10 12 12 11 10 10 9 9 9 10 10 9 6 5 4 5 6 8 7 6 6 6 5 6 7 7 9 10 12 12 15 13 12 13 10 8 8 10 11 12 11 11 10 9 9 8 7 6 4 2 4 6 1
6 2 3 1 1 6 10 10 4 9 9 9 6 4 7 6 6 9 11 10 10 11 14 15 14 14 14 11 12 15 15 14 12 11 11 11 11 11 11 11 10 11 10 9 8 7 5 4 4 3 4 6 6 6 6 5 6 7 7 8 9 11 11 13 14 13 12 12 10 9 11 10 11 12 12 10 9 7 7 7 6 4 4 8 6 7 8
6 5 3 2 3 6 7 7 7 9 9 8 8 6 7 5 7 6 9 11 10 10 13 14 14 14 13 13 9 10 10 13 12 12 11 10 10 10 10 10 9 9 10 9 8 7 5 5 4 3 2 3 5 5 5 6 7 7 7 9 10 11 11 12 13 12 10 10 11 11 10 12 12 12 12 10 8 7 7 6 5 4 7 6 6 5 5
3 3 1 3 5 3 7 7 8 10 10 10 10 8 8 9 7 8 7 8 8 8 7 13 11 11 10 13 13 12 10 10 11 12 11 10 9 9 9 8 8 8 8 8 8 8 6 5 4 4 2 1 2 3 5 5 6 6 7 9 10 10 10 11 12 13 13 12 11 12 12 11 11 11 11 10 9 7 6 6 5 5 7 5 4 5 5
6 3 5 6 6 4 5 6 9 8 9 8 8 7 8 7 8 10 11 9 11 10 12 13 12 12 11 12 11 11 10 11 11 11 11 10 9 9 9 6 4 5 6 7 7 6 5 4 3 3 2 2 1 3 5 5 6 7 8 9 10 9 10 10 10 11 12 10 10 11 11 10 8 9 9 8 8 6 6 6 6 5 4 5 5 5 8
3 1 10 6 8 5 4 4 6 8 10 10 9 7 8 9 12 12 12 12 12 11 12 11 12 12 11 12 10 10 9 8 8 9 9 8 8 8 7 6 6 6 7 8 6 4 4 2 2 2 2 2 3 4 5 6 7 8 8 9 9 9 10 9 9 9 10 12 12 10 10 10 9 8 8 8 6 7 7 7 6 5 4 4 6 7 6
2 5 3 11 10 8 5 3 5 6 5 5 9 10 11 12 15 14 15 15 13 13 11 10 12 14 12 12 12 12 9 9 10 10 9 10 10 9 10 8 7 5 4 5 5 4 3 2 2 3 3 3 4 6 6 6 7 8 7 8 9 8 8 8 8 8 10 11 10 10 8 3 6 6 4 2 4 4 5 1 3 5 6 6 7 6 8
5 7 8 14 13 6 6 4 5 5 7 5 6 9 11 12 12 12 15 14 13 13 13 12 12 13 10 11 12 13 11 10 10 9 8 8 8 8 6 5 5 3 4 4 4 3 2 3 3 2 3 3 4 6 6 6 7 7 7 6 9 8 8 8 9 9 10 10 11 7 7 6 6 6 10 10 8 4 3 5 7 4 1 2 6 8 6
1 4 5 7 3 12 6 6 5 2 1 7 11 9 9 10 11 11 13 13 14 14 13 11 12 11 11 11 12 14 12 10 10 9 10 9 8 7 5 4 4 4 4 4 3 2 1 1 2 2 3 4 5 5 6 5 6 5 5 5 5 7 7 7 8 9 9 7 5 6 6 7 7 6 4 7 13 13 10 7 6 6 4 3 3 3 4
4 5 7 7 5 7 9 7 7 5 2 8 13 10 8 10 12 12 13 11 12 9 10 11 11 11 12 12 13 12 11 11 11 11 10 9 8 6 5 4 4 3 3 2 2 1 2 2 2 2 3 3 4 5 5 5 4 4 5 5 6 6 6 5 5 4 5 4 3 5 7 8 6 7 6 6 6 12 12 11 11 10 9 8 7 8 9
2 5 12 11 12 12 8 6 5 6 5 7 9 10 11 11 12 12 11 9 8 8 8 9 8 8 11 11 11 10 10 9 9 7 7 8 9 8 7 7 7 6 5 4 2 1 0 0 1 1 1 0 1 3 4 6 7 7 7 7 7 7 8 7 7 8 9 9 9 7 8 8 6 5 6 6 6 6 8 12 12 11 11 9 9 10 10
6 8 10 11 12 9 5 8 12 11 8 8 9 9 10 9 10 12 9 6 7 8 6 7 9 9 9 9 9 9 10 10 8 9 10 10 10 10 9 8 7 5 4 2 1 2 2 2 2 2 2 2 2 3 5 6 7 7 8 8 8 8 9 8 8 9 10 9 9 7 6 8 8 7 6 7 7 8 8 7 6 8 9 9 9 10 8
3 5 6 12 14 12 12 10 4 7 7 8 9 7 6 7 9 10 9 5 7 7 7 8 9 8 8 8 9 10 9 7 9 9 8 9 10 8 6 6 6 5 4 4 3 3 3 2 1 1 3 3 2 4 5 6 6 6 6 6 7 7 8 8 7 8 8 7 6 6 7 7 8 9 9 8 9 9 9 9 9 8 7 4 3 5 3
8 10 11 11 7 8 7 7 6 6 8 8 8 7 4 2 6 8 9 9 10 9 9 10 10 10 10 8 8 8 8 9 8 7 8 8 6 6 5 6 6 6 5 5 4 4 3 2 2 2 3 2 2 3 5 5 6 6 5 6 6 6 7 7 7 7 6 7 7 7 9 9 8 8 9 8 9 8 8 8 9 9 8 6 5 4 7
8 9 10 10 8 6 6 8 9 10 9 9 8 7 6 8 8 9 10 9 9 10 10 10 9 8 8 7 8 8 7 7 7 7 5 4 5 6 7 7 6 4 4 4 3 3 2 2 3 3 2 0 1 2 3 4 4 5 5 5 5 4 5 6 7 6 5 7 9 9 7 8 9 10 9 8 8 8 8 8 8 7 7 8 7 5 6
6 7 8 8 8 8 7 7 2 3 4 4 3 3 1 4 8 9 9 10 9 9 7 7 8 8 8 8 8 7 7 7 5 4 4 4 4 4 5 6 5 2 2 2 3 3 3 3 3 3 2 1 1 2 3 4 4 4 4 3 2 3 5 6 7 7 7 8 8 10 9 7 5 7 8 7 7 7 6 6 7 8 7 6 6 7 6
5 6 6 6 5 3 3 1 2 4 3 1 1 3 2 5 8 8 8 7 7 7 7 6 6 6 6 6 5 5 5 4 4 4 3 2 2 3 4 5 5 6 6 5 5 4 4 4 2 1 0 2 3 4 4 5 4 5 4 5 6 12 11 5 3 5 5 5 7 8 7 8 8 8 9 8 7 6 6 6 7 6 6 6 6 6 6
6 5 4 3 4 5 4 4 3 2 3 1 3 5 6 7 8 8 6 6 5 5 5 6 6 5 4 4 5 5 5 5 4 4 4 3 3 3 4 4 4 5 5 5 5 5 4 4 2 1 2 3 3 3 3 3 4 4 6 7 7 8 10 10 7 7 8 8 8 8 8 8 8 8 7 6 6 6 6 6 7 7 7 7 6 6 7
10 9 7 5 4 3 3 2 3 4 5 6 5 4 4 5 5 5 5 3 3 4 4 4 4 4 4 4 4 5 5 5 5 4 4 5 6 5 5 5 5 6 7 6 6 5 4 4 3 2 2 2 3 3 3 3 3 4 6 6 5 6 9 7 7 8 8 8 7 6 6 6 6 6 6 6 6 6 6 6 6 6 6 6 6 6 7
3 3 3 2 3 2 3 3 2 3 3 3 2 2 3 4 4 3 3 3 4 5 5 5 5 5 5 5 5 5 5 5 4 5 7 7 7 7 7 6 6 6 5 5 5 4 3 2 2 1 2 2 2 2 2 2 2 3 5 5 6 7 7 8 8 6 6 6 6 7 6 5 5 5 6 6 6 6 6 5 5 5 6 6 5 5 7
8 6 5 3 3 4 3 3 2 3 3 4 4 4 4 3 3 4 5 5 6 6 5 5 6 5 5 5 5 6 6 6 6 7 7 7 8 8 8 7 7 6 4 4 4 4 3 2 2 1 1 1 1 2 4 5 5 4 5 5 6 6 6 5 5 5 6 6 5 6 5 4 3 4 6 6 6 6 5 4 4 5 5 6 5 5 5
2 3 3 3 3 4 4 4 3 3 4 4 4 4 5 5 5 6 7 6 6 6 6 6 6 6 6 7 6 7 7 7 7 7 7 7 7 6 6 6 6 6 5 3 5 4 3 2 1 1 0 2 2 4 5 6 6 5 5 5 5 6 5 4 4 5 6 6 6 6 5 5 5 5 6 6 6 5 5 5 5 5 5 5 5 5 6
4 4 4 4 4 6 6 5 4 4 4 5 5 5 6 6 6 6 6 6 7 7 7 6 7 7 7 7 6 6 6 6 6 6 6 6 6 6 6 5 6 6 5 4 5 5 3 1 3 2 1 2 3 5 7 9 5 6 5 5 5 5 5 4 4 3 5 6 6 7 7 7 5 5 5 5 5 5 5 4 5 4 4 5 5 6 6
4 5 5 5 5 6 6 5 4 5 5 6 6 6 5 5 5 5 6 6 6 6 6 6 6 5 5 5 6 6 6 6 6 7 6 7 6 6 5 5 5 4 4 3 4 4 4 2 3 2 1 1 2 3 6 10 10 5 2 3 4 4 3 4 6 4 4 5 5 5 4 4 5 5 4 4 4 5 4 4 4 5 5 4 5 6 6
6 4 5 5 6 6 6 6 6 6 6 7 6 6 6 5 5 5 5 5 5 6 6 5 4 5 5 5 6 6 6 6 6 6 7 7 6 6 6 5 4 4 3 3 3 3 3 2 2 1 1 1 2 4 7 7 5 3 4 4 4 4 3 3 5 5 5 5 2 2 4 4 4 5 5 4 4 4 4 4 5 5 5 6 6 6 6
5 6 6 6 6 6 6 6 7 6 6 7 7 7 6 6 6 6 6 5 5 6 5 5 5 6 5 5 5 5 5 5 5 5 6 5 5 5 5 6 6 4 2 2 3 4 5 4 3 3 3 4 3 3 4 4 4 3 4 4 4 3 4 4 4 3 4 4 4 3 3 3 3 3 3 4 4 4 4 5 5 5 5 5 5 5 5
6 5 6 6 6 6 6 6 6 6 6 6 6 6 6 6 6 6 6 6 6 6 6 5 5 5 4 4 3 3 4 4 4 4 5 5 6 5 5 6 5 5 5 5 5 5 5 5 4 3 4 3 3 3 4 4 3 3 4 4 5 5 4 4 4 4 4 5 5 4 4 4 4 4 3 3 3 3 3 4 4 4 3 4 4 5 5
5 5 6 7 6 6 5 4 4 5 5 4 4 4 5 5 5 6 5 5 5 5 5 5 6 5 5 4 3 4 5 5 5 5 5 5 4 4 5 4 4 5 8 7 5 5 4 3 3 3 3 3 3 5 4 2 2 3 4 5 5 6 6 6 5 5 5 4 4 5 4 4 4 4 3 3 2 2 2 2 3 3 3 4 5 6 6
4 4 4 5 5 5 5 4 4 4 4 5 4 4 3 3 3 4 4 5 5 4 5 5 5 6 6 6 6 6 7 6 7 6 6 6 5 4 3 3 2 3 4 4 4 3 3 2 1 2 4 3 2 5 4 3 3 4 4 5 6 6 6 6 6 6 5 5 5 5 4 4 4 3 3 2 2 2 2 3 4 5 5 6 7 7 7
3 2 2 2 3 3 2 3 3 3 5 5 4 3 3 3 3 3 3 4 4 5 5 5 6 6 6 6 6 6 6 6 6 6 5 3 4 4 4 3 2 2 5 4 3 2 2 1 1 3 1 2 4 3 2 2 3 3 3 4 4 5 5 5 6 6 6 5 5 5 4 4 4 3 3 2 2 2 2 3 4 6 7 7 8 8 8
2 2 2 2 2 2 3 3 3 4 3 2 2 2 3 4 4 3 2 2 2 2 3 3 4 4 4 4 4 4 3 3 3 4 5 6 5 6 5 5 3 3 3 5 3 2 1 1 3 4 4 5 4 2 2 2 3 3 3 3 4 4 4 4 4 5 5 5 5 5 5 5 4 4 3 3 2 1 1 1 2 3 4 6 7 8 9
1 2 2 1 2 3 3 3 2 1 1 1 3 4 4 4 3 3 2 3 3 2 2 3 3 3 3 3 3 4 4 4 4 2 2 3 4 4 5 5 4 4 5 5 3 2 3 3 3 2 6 5 4 2 2 2 2 2 2 3 3 4 4 4 4 5 5 5 5 5 5 4 3 3 2 2 1 0 1 1 2 3 4 5 6 6 6
1 1 1 2 2 2 1 1 2 1 3 5 5 5 6 5 4 2 2 1 2 2 2 2 3 3 3 2 3 4 5 5 4 4 4 4 3 3 4 4 3 5 4 2 2 1 2 2 1 2 5 5 3 2 2 2 2 2 2 3 3 4 4 4 4 5 4 4 4 3 3 2 2 2 2 2 2 1 1 1 3 4 4 5 6 6 7
2 1 1 1 1 0 1 1 1 3 3 3 3 3 3 4 4 3 2 1 2 2 2 1 2 2 2 2 2 2 2 3 4 4 4 5 4 3 3 3 3 4 4 1 1 1 2 3 1 5 5 5 2 2 1 2 2 3 3 3 3 3 3 4 4 4 3 3 3 3 3 3 3 2 2 2 2 2 2 2 3 4 4 5 5 5 6
1 1 1 1 1 2 0 1 2 2 3 2 2 3 3 4 3 3 4 3 3 3 3 3 3 2 1 1 1 1 1 1 2 3 3 3 3 3 3 1 2 4 3 2 1 2 3 2 1 1 6 4 2 2 2 2 2 3 3 4 4 4 4 4 3 3 3 3 3 3 2 2 2 2 2 2 3 3 3 3 3 3 4 5 5 5 5
1 2 2 3 3 3 3 2 3 3 2 2 3 2 2 2 3 4 3 3 3 3 3 3 2 3 3 2 1 1 1 2 3 4 4 4 3 2 2 2 2 2 3 3 3 2 3 3 2 2 4 3 2 2 2 3 3 4 4 4 4 4 4 3 2 2 2 2 2 2 2 3 3 2 3 4 4 3 4 4 4 1 3 4 4 4 5
3 2 2 2 1 1 1 0 2 2 3 3 2 2 2 2 2 2 2 4 4 4 5 5 5 3 3 4 4 3 2 2 3 4 4 4 3 3 3 2 3 3 3 3 3 4 3 3 3 4 4 4 4 3 3 4 4 4 5 5 5 5 4 4 5 4 5 4 4 4 4 4 5 5 4 4 4 4 4 4 5 5 5 5 5 5 5
2 1 0 0 1 1 1 1 1 1 1 2 2 2 2 2 2 3 3 4 4 3 3 4 5 5 4 5 6 5 4 4 4 4 4 4 4 4 3 5 4 4 4 4 4 4 4 4 4 4 5 5 5 4 3 3 4 5 5 5 5 5 5 5 5 5 5 5 6 5 6 6 5 5 5 5 4 4 4 5 5 5 5 5 5 5 5
Wind_Direction
221 224 225 202 197 218 209 212 211 204 194 189 206 209 211 159 212 232 186 180 207 208 209 207 215 213 214 223 225 225 224 26 196 188 193 194 190 181 183 187 182 170 173 174 178 183 188 186 186 190 190 193 193 193 194 193 195 198 188 181 183 184 186 190 187 177 176 175 164 164 177 167 157 167 162 156 168 176 181 183 175 190 212 186 187 208 220
228 230 229 197 199 217 229 217 212 203 198 198 203 206 206 194 218 228 208 186 207 205 210 213 219 219 220 236 263 54 216 219 197 195 197 196 190 188 190 188 183 179 175 172 178 179 179 182 184 187 188 189 192 193 195 193 194 196 175 179 180 188 201 202 184 170 176 179 167 184 187 174 162 158 144 155 175 180 183 187 191 187 190 174 205 214 218
234 235 233 218 212 216 226 227 222 212 204 201 203 209 205 197 217 214 213 196 224 226 227 229 220 35 354 248 221 218 210 190 189 197 199 196 195 197 194 182 178 173 171 172 173 176 180 183 186 188 189 190 188 195 194 191 188 184 173 177 181 186 203 203 182 162 180 179 166 178 179 116 120 125 151 181 190 190 180 186 197 190 166 179 192 208 227
233 226 234 226 215 217 224 228 223 209 207 211 204 225 172 184 203 218 218 219 231 238 216 234 249 257 243 234 233 221 207 202 195 197 200 194 195 195 189 177 169 164 172 173 175 180 183 185 184 185 183 182 180 194 187 185 186 177 179 181 185 188 191 190 179 168 183 171 171 175 156 142 156 181 182 179 184 187 191 197 190 156 165 170 188 203 204
275 274 274 268 215 210 235 232 227 214 198 206 200 212 191 202 192 202 206 222 214 232 206 198 219 219 230 246 250 236 222 204 203 207 204 195 185 181 165 170 177 178 178 179 179 180 178 177 181 183 170 171 186 185 184 184 172 177 185 186 184 185 184 189 171 177 182 178 171 162 155 160 182 190 181 184 186 183 195 200 180 171 174 182 198 181 201
280 26 55 135 163 221 230 218 217 208 210 203 213 212 206 219 210 213 209 214 216 215 153 199 217 209 216 224 250 306 310 220 214 220 206 188 179 168 173 181 181 176 165 164 173 173 164 164 164 164 176 186 188 180 175 167 173 180 181 184 182 179 187 183 180 181 185 174 171 165 168 177 184 170 177 182 181 185 203 215 210 190 191 200 191 190 213
276 69 189 198 232 240 236 43 341 215 216 209 210 215 212 211 208 228 263 246 232 216 209 208 219 227 43 28 345 298 243 211 205 208 233 192 171 179 170 164 165 155 154 143 142 145 157 169 177 179 182 177 158 161 168 171 177 177 182 176 178 175 186 180 183 185 186 173 173 173 175 181 180 183 182 175 184 188 203 213 201 193 194 196 193 200 210
234 251 193 246 237 344 317 336 24 92 94 241 211 249 246 224 212 208 223 223 221 207 224 235 179 204 133 85 58 13 311 239 198 186 189 184 197 193 174 158 149 153 158 158 164 174 174 165 168 173 172 166 159 167 170 172 173 176 174 174 175 178 190 185 185 187 182 173 177 173 175 181 190 193 187 185 189 194 206 213 205 198 202 206 203 203 208
294 310 284 280 317 280 218 244 173 149 185 173 182 206 217 196 200 197 218 233 234 229 228 210 170 156 164 182 94 44 11 275 285 196 149 146 136 129 138 150 155 160 161 162 157 136 142 158 159 166 155 155 157 155 163 170 163 168 173 179 182 179 186 188 187 189 178 177 176 175 179 185 190 193 188 191 193 195 205 210 203 200 203 205 210 210 210
315 308 313 298 270 271 226 134 34 359 342 319 321 293 214 149 198 205 212 225 212 204 186 172 158 161 166 211 197 25 13 208 155 128 127 140 142 150 153 124 118 116 110 110 123 141 140 146 146 139 140 146 147 151 159 157 164 173 182 188 183 185 185 194 191 187 178 183 178 177 181 189 190 193 193 193 197 196 204 205 204 202 201 206 208 219 227
280 297 316 300 290 283 44 38 355 348 332 323 300 234 231 165 190 198 204 211 206 191 176 165 160 164 193 196 127 41 4 185 152 126 111 111 109 113 125 138 131 126 123 125 131 130 135 128 128 129 136 141 146 154 160 166 174 179 189 186 179 184 188 196 192 180 179 181 180 178 182 191 189 189 193 195 197 188 203 210 209 198 198 206 217 224 232
291 295 275 290 290 324 20 353 344 329 324 324 226 217 214 158 181 184 190 206 194 188 169 155 171 176 180 147 127 113 144 133 118 113 112 108 108 107 104 91 96 101 113 118 115 114 112 109 122 134 138 145 149 155 158 163 174 186 189 187 182 178 190 194 191 180 182 183 182 180 184 189 188 198 197 198 195 192 202 203 204 204 202 213 222 228 231
280 246 291 273 257 132 16 351 331 323 309 257 213 211 144 100 161 156 178 194 169 163 162 165 145 14 71 116 127 132 130 111 93 90 96 100 102 102 100 96 94 106 107 102 100 100 104 117 124 132 143 143 145 145 151 167 188 192 180 174 170 172 179 186 190 183 184 184 183 185 187 192 193 195 196 196 193 193 199 200 202 202 199 208 222 233 239
281 296 277 281 289 69 342 346 333 317 246 196 213 35 313 305 92 110 147 130 124 142 54 81 101 113 107 114 114 107 101 97 100 101 103 101 94 91 97 112 124 123 112 101 97 88 85 104 114 130 140 130 127 137 156 184 189 169 168 169 169 173 179 183 190 186 188 184 182 179 181 182 188 194 195 193 188 191 196 191 195 202 199 196 212 267 326
133 230 259 309 299 76 14 348 335 54 290 2 334 5 27 20 71 94 85 96 102 106 93 91 103 108 108 107 103 93 80 70 72 80 85 87 93 96 97 83 68 78 72 67 66 70 73 80 105 128 128 121 127 143 172 175 159 164 167 169 177 188 195 189 197 193 186 180 178 175 181 191 192 193 193 191 187 190 190 189 195 195 189 149 76 68 124
201 180 201 205 207 322 8 10 331 343 326 315 311 48 77 27 72 80 87 73 79 97 111 111 101 100 103 99 107 104 100 93 84 73 73 79 83 83 82 86 86 84 83 78 80 75 77 78 83 96 122 125 144 155 162 150 155 162 169 173 185 197 196 201 199 198 186 184 181 181 190 191 193 195 197 191 189 187 187 192 191 179 117 103 128 198 221
177 191 188 220 35 338 17 5 341 318 330 341 338 40 57 59 39 13 80 87 83 92 104 99 99 94 87 91 77 86 102 105 99 87 76 73 79 83 84 84 88 91 97 102 104 99 96 93 83 82 72 119 139 156 145 149 161 167 171 182 194 199 200 201 202 199 190 186 183 190 192 196 196 200 199 187 191 189 188 191 183 162 139 160 188 201 212
125 45 71 124 88 342 354 354 354 360 359 359 1 22 60 37 39 28 55 48 61 55 41 89 75 80 94 92 90 85 81 86 101 105 90 77 77 78 81 76 71 83 92 96 104 106 102 101 107 107 90 128 181 153 140 157 161 171 175 190 195 200 202 203 203 202 202 199 195 198 199 200 196 199 192 189 197 190 184 189 174 168 187 177 202 211 209
158 187 202 165 124 83 57 360 345 5 14 14 356 24 37 41 44 51 44 53 54 56 58 63 71 59 58 69 64 63 57 55 51 64 79 76 63 58 57 42 67 95 98 90 83 87 89 94 92 105 146 173 194 129 158 168 172 178 188 192 198 199 202 204 203 202 200 196 194 198 203 204 200 200 198 199 196 186 177 175 173 184 182 169 198 213 225
225 188 162 127 109 108 85 43 0 6 1 23 34 39 49 57 53 49 41 44 44 47 55 52 67 62 55 60 58 57 51 46 48 48 49 55 73 71 76 62 33 47 63 76 76 71 73 82 108 142 161 186 176 181 180 184 180 183 191 195 196 201 202 201 200 197 197 193 192 195 198 202 204 202 206 210 198 196 191 177 180 188 177 154 201 213 215
48 44 91 117 98 110 105 108 67 35 1 10 52 46 57 62 62 58 55 52 51 49 49 52 65 66 54 56 61 62 50 43 41 41 41 42 40 36 39 38 35 38 41 73 84 83 83 119 172 172 186 177 183 185 187 184 178 186 187 185 195 200 199 196 198 193 198 195 193 195 183 116 57 35 0 274 224 175 59 40 186 159 152 197 220 221 217
182 173 197 147 134 178 162 158 121 144 119 92 55 57 54 60 59 59 65 56 55 55 49 52 62 69 62 57 63 61 55 49 46 48 53 60 62 59 54 47 45 47 53 67 82 94 123 170 179 174 159 175 183 197 194 194 189 192 184 180 197 203 200 199 199 196 202 200 196 170 136 127 114 81 65 59 28 9 115 48 38 23 73 226 249 220 202
207 36 152 335 351 111 78 112 126 121 57 90 77 62 62 55 54 51 57 58 47 46 45 42 59 63 60 57 63 62 53 45 44 46 47 48 51 55 50 67 62 57 53 61 69 98 128 169 187 174 173 182 190 198 194 192 193 194 186 182 193 212 203 204 193 195 198 194 119 113 123 136 150 144 143 62 49 42 34 36 33 41 67 57 41 66 137
27 28 63 38 13 86 107 96 102 93 93 106 99 92 71 68 64 61 63 58 66 47 45 44 43 56 59 54 62 66 58 48 44 43 43 49 48 50 53 47 39 42 68 90 101 117 160 185 187 178 171 177 187 207 205 198 191 199 199 199 213 212 206 184 121 86 79 87 118 151 150 159 153 165 140 121 77 46 40 32 43 56 65 79 90 99 112
75 61 87 89 83 72 70 71 53 57 44 78 85 84 83 80 75 72 66 62 57 60 64 64 45 51 69 69 66 66 66 59 51 44 45 46 42 38 30 23 18 12 10 10 355 337 275 262 341 27 53 131 200 240 226 222 219 219 220 221 220 195 176 153 163 171 173 170 173 178 167 165 161 140 133 138 127 110 51 53 57 57 55 67 85 94 100
88 81 77 81 75 68 71 82 52 35 30 53 73 72 74 82 95 88 77 73 80 78 71 71 71 56 58 63 64 68 67 58 48 43 44 37 32 29 19 10 357 348 341 338 340 349 1 7 360 347 304 257 212 218 217 217 221 225 224 219 211 200 189 177 178 192 183 178 174 173 148 162 171 163 153 147 143 138 132 130 98 73 64 59 71 87 83
8 57 78 72 66 59 45 57 53 8 20 28 51 57 66 95 95 97 106 106 96 83 75 69 69 65 55 52 58 55 57 49 47 45 42 39 33 21 3 352 353 349 348 355 3 9 355 352 336 273 270 270 224 203 213 202 203 209 210 203 202 203 181 175 184 193 189 160 151 145 150 160 167 173 171 160 153 154 159 157 152 146 143 114 48 358 133
19 57 74 85 70 61 63 48 33 27 25 28 29 22 5 19 87 89 87 80 70 68 61 51 46 46 50 36 41 46 45 46 46 42 42 35 25 15 8 359 359 5 6 3 359 358 338 314 286 266 257 254 234 208 203 199 196 188 181 183 189 196 192 190 197 199 172 147 147 150 174 172 171 170 174 168 163 162 157 152 147 144 145 140 133 109 80
30 50 60 77 94 92 63 40 30 34 12 12 9 15 3 51 54 60 59 55 54 56 50 47 49 47 46 41 34 35 34 35 34 29 28 18 11 10 4 3 354 3 9 356 350 343 317 287 274 275 282 194 247 218 216 207 196 191 186 189 185 180 173 184 193 190 163 166 168 168 153 161 172 177 173 168 164 161 161 155 146 141 135 140 146 125 90
51 55 62 53 35 34 55 84 54 15 347 333 348 18 327 72 61 52 52 45 42 47 36 33 38 36 29 32 27 19 17 13 6 356 4 12 10 4 0 349 341 16 11 6 348 327 297 289 280 299 345 125 189 191 201 194 184 157 159 161 185 187 192 187 190 189 179 172 148 136 154 164 165 178 171 162 165 157 148 135 135 138 141 149 139 128 142
54 50 67 78 83 60 48 325 224 200 192 215 217 128 27 67 76 63 50 44 40 39 24 26 28 27 25 17 5 354 351 346 338 337 337 349 357 6 2 358 1 355 345 340 334 323 309 303 313 319 10 210 196 192 184 177 167 154 134 106 82 44 44 68 133 149 137 131 144 150 152 164 167 165 169 163 145 140 137 135 140 141 144 141 140 144 152
108 89 96 144 161 168 178 221 216 111 101 119 76 47 33 52 60 59 52 44 40 24 23 28 23 13 3 352 341 337 331 328 320 322 328 333 351 21 14 352 329 318 318 326 333 334 326 317 299 298 196 193 191 192 183 171 168 141 126 127 130 149 161 170 165 163 164 151 152 158 154 163 161 165 158 151 145 138 136 140 149 154 155 151 158 165 158
139 141 140 153 139 107 75 8 59 51 39 55 38 18 25 36 56 58 55 34 28 31 24 23 12 1 350 336 333 328 326 318 313 315 337 347 346 358 13 354 339 332 333 337 339 335 329 315 312 310 256 199 198 193 195 176 173 136 136 146 152 143 152 147 151 153 148 144 145 147 160 166 161 153 140 133 130 133 140 148 154 157 159 165 168 164 167
63 75 52 17 3 67 118 108 48 83 76 74 69 66 69 53 52 55 43 29 33 29 20 6 359 351 345 345 341 336 338 337 343 348 344 339 337 346 354 351 342 340 344 354 1 8 2 345 299 258 237 211 182 170 140 134 119 122 129 140 146 144 146 144 155 145 134 130 131 137 140 138 136 138 132 130 136 149 154 151 151 162 165 168 161 155 135
38 39 31 33 42 44 45 84 98 86 91 91 86 77 68 57 41 38 39 40 35 21 11 8 5 360 5 5 360 357 354 352 346 339 338 338 340 346 345 346 351 357 9 36 28 21 5 351 337 301 207 201 139 109 95 83 85 91 112 124 121 120 121 128 139 136 124 116 123 125 127 134 129 138 135 133 133 132 140 155 162 169 169 168 155 145 140
135 123 104 86 71 73 74 70 73 75 74 71 66 57 46 34 30 31 31 32 29 24 20 19 23 24 28 21 15 9 4 357 350 346 343 344 343 343 351 1 8 15 17 41 35 3 346 347 110 92 72 124 137 125 104 103 95 92 86 87 101 110 121 122 110 107 113 123 133 138 133 139 144 146 131 121 121 129 141 152 168 176 184 169 156 155 150
76 83 79 76 70 71 70 59 57 65 68 60 50 46 41 36 36 39 37 37 33 29 26 25 31 30 25 23 21 20 17 8 359 355 351 349 351 357 14 20 26 22 23 28 16 351 343 325 78 117 71 106 106 113 124 123 121 127 127 124 121 112 118 115 122 132 136 136 126 126 134 140 139 128 128 128 134 140 145 151 163 176 179 168 158 163 159
65 71 74 75 77 77 71 66 61 68 74 76 69 61 45 35 34 42 48 46 40 33 30 33 34 31 29 30 31 29 22 19 14 15 10 9 4 10 24 25 26 15 28 24 356 2 8 43 76 66 63 86 124 126 132 134 131 129 112 131 131 141 130 129 132 139 129 117 105 106 111 118 134 142 141 141 146 150 158 160 167 173 176 167 169 176 182
85 78 68 66 66 64 65 64 60 56 54 60 62 59 47 37 41 53 59 52 40 28 33 34 32 42 41 38 37 38 34 32 31 29 29 26 30 34 34 24 14 358 346 345 350 17 6 348 360 352 71 91 119 113 120 117 104 116 140 159 154 122 117 133 128 113 93 75 49 122 140 141 158 152 152 155 154 155 155 160 168 184 187 187 188 189 189
73 65 62 61 57 50 56 55 52 48 45 43 44 40 31 30 37 42 44 41 30 20 24 17 31 42 37 38 30 29 23 23 26 18 13 20 33 43 58 46 21 7 16 331 17 49 52 52 37 48 58 68 73 91 110 127 128 129 124 140 141 122 129 122 119 114 128 139 146 133 117 123 124 124 123 129 137 159 172 171 187 195 201 195 202 203 200
50 52 56 59 59 58 55 56 57 49 45 43 44 41 34 35 35 38 34 28 18 20 17 10 14 32 28 15 7 356 2 21 21 28 23 34 45 44 49 52 25 30 54 63 40 37 38 31 34 45 47 55 79 95 110 111 106 103 103 112 115 106 105 109 112 116 138 162 162 151 142 142 134 136 138 149 158 169 180 192 197 200 208 202 207 207 213
39 47 53 55 51 50 50 51 56 64 59 53 48 42 42 38 38 40 34 23 18 17 17 16 14 15 12 6 347 360 19 24 28 31 39 39 41 43 50 45 11 32 43 43 28 25 31 44 36 28 27 40 58 66 79 111 120 124 139 138 140 141 147 150 159 159 155 143 132 131 136 137 139 139 143 153 162 177 183 211 216 213 215 221 224 223 224
33 43 50 58 57 53 50 45 45 48 64 60 47 45 41 38 45 46 43 36 25 14 7 10 10 14 15 13 10 17 19 18 23 20 36 55 48 36 24 18 14 35 29 41 32 33 43 79 26 27 2 347 44 85 104 106 110 125 130 132 137 137 136 135 134 134 138 137 139 141 139 144 146 149 153 169 180 192 213 222 236 239 233 233 234 232 229
3 17 22 40 60 59 53 49 46 43 47 41 25 14 28 34 29 28 30 26 19 11 5 6 7 9 7 8 7 12 10 11 8 6 354 49 84 65 38 25 356 347 327 356 29 32 95 110 77 16 24 87 76 77 78 90 97 103 114 126 136 141 140 142 144 146 146 145 147 146 142 145 149 147 162 167 190 209 228 258 266 266 266 258 253 248 241
353 350 346 359 6 20 42 38 26 26 15 346 330 28 35 31 26 16 4 355 356 351 344 347 356 357 353 352 353 349 335 337 344 344 4 8 18 43 25 17 24 18 22 10 30 39 59 68 34 358 110 102 106 99 103 98 102 109 118 127 135 139 142 144 144 145 139 144 140 138 140 143 138 139 137 131 139 159 195 260 287 294 287 284 279 271 260
318 299 303 303 55 40 18 356 347 326 312 1 37 36 24 18 16 13 359 345 330 333 328 319 303 305 325 323 322 330 344 4 26 41 23 4 358 340 355 356 5 0 1 3 30 44 80 56 31 58 125 129 128 106 91 89 91 102 112 120 126 132 136 139 136 138 141 144 145 147 146 141 139 143 140 142 118 14 67 11 308 296 296 294 289 282 275
309 281 329 13 66 82 47 298 275 301 30 30 25 8 354 352 355 3 7 321 307 305 307 299 300 297 300 307 328 344 353 1 19 47 28 26 9 350 344 348 348 338 333 10 31 97 89 126 62 117 152 143 157 136 127 124 121 122 120 122 126 132 136 137 142 144 149 148 143 133 115 122 130 128 127 143 175 217 255 276 298 311 307 301 292 279 267
2 358 53 20 345 183 191 239 16 41 35 24 350 336 339 336 341 350 355 347 325 308 288 262 272 279 277 269 268 258 308 336 346 21 26 5 4 1 358 2 7 354 327 290 166 99 44 8 116 171 152 154 167 164 152 149 152 149 150 143 149 148 150 151 158 158 156 147 152 164 170 164 168 179 193 228 247 256 269 286 300 309 310 307 304 301 291
2 333 310 204 221 238 145 5 360 3 26 357 343 346 336 327 322 352 358 350 349 347 347 340 327 320 286 232 246 284 261 240 280 320 336 332 335 335 338 321 265 258 268 277 260 213 128 128 103 173 170 177 195 200 209 202 185 183 179 179 174 172 171 176 180 177 179 179 186 191 200 212 203 218 232 246 253 248 244 260 277 293 312 319 313 304 298
10 358 26 19 6 5 9 346 341 353 342 335 353 335 326 320 357 8 348 354 347 323 320 328 338 340 335 338 313 240 215 238 252 268 276 278 279 279 263 263 263 256 266 286 285 273 140 164 192 218 225 221 217 216 223 217 206 207 203 193 191 192 189 185 133 148 207 213 224 228 232 245 247 238 253 256 255 259 265 271 282 266 172 245 289 307 314
360 25 29 16 12 30 126 228 296 314 330 340 338 330 327 337 340 324 349 4 352 359 350 342 332 351 359 354 348 348 320 272 243 231 247 256 243 244 237 240 226 232 232 243 256 267 265 250 247 231 233 241 236 230 222 217 219 210 212 217 209 214 196 186 209 205 210 218 226 230 235 238 237 234 242 252 258 263 272 272 275 285 287 304 306 312 318
309 289 205 267 9 34 340 17 39 27 354 338 341 333 332 333 334 338 13 31 14 1 350 337 330 338 354 354 344 338 334 321 306 282 254 249 245 254 216 216 234 217 222 236 244 243 252 252 242 240 244 249 246 241 219 207 229 237 227 225 226 225 221 219 215 220 215 209 223 234 235 239 239 234 239 247 255 265 269 273 277 280 284 289 297 302 306